Tracking 29892 objects as of 21-Nov-2024
HD Live streaming from Space Station
objects crossing your sky now

STARLINK-4489

Track STARLINK-4489 now!
10-day predictions
STARLINK-4489 is classified as:


NORAD ID: 53542
Int'l Code: 2022-101R
Perigee: 545.9 km
Apogee: 547.8 km
Inclination: 53.2 °
Period: 95.4 minutes
Semi major axis: 6917 km
RCS: Unknown
Launch date: August 19, 2022
Source: United States (US)
Launch site: AIR FORCE EASTERN TEST RANGE (AFETR)
Your satellite tracking list
Your tracking list is empty




NASA's NSSDC Master Catalog

Two Line Element Set (TLE):
1 53542U 22101R   24325.61562779 -.00000264  00000-0  15164-5 0  9999
2 53542  53.2172  32.3177 0001421 100.2324 259.8828 15.08846735125427
Source of the keplerian elements: AFSPC